Probability
0 0 0 0 0 0 0 0 0 0 0 0 0 1 2 5 9 14 18 19 17 16 17 18 19 21 21 17 11 8 8 8 8 8 7 6 5 4 4 4 4 2 0 0
0 0 0 0 0 0 0 0 0 0 0 0 0 1 2 4 7 11 15 17 15 14 15 16 17 19 19 16 12 9 8 8 8 7 7 6 5 5 5 5 4 2 1 0
0 0 0 0 0 0 0 0 0 0 0 0 0 0 1 3 5 8 10 12 12 12 13 14 15 18 19 16 13 10 7 7 6 6 6 6 6 6 5 4 2 2 1 0
0 0 0 0 0 0 0 0 0 0 0 0 0 0 0 1 2 5 8 9 9 10 10 12 14 17 17 15 12 9 6 4 4 4 4 4 5 5 4 3 1 0 0 0
0 0 0 0 0 0 0 0 0 0 0 0 0 0 0 0 1 4 7 8 7 8 9 10 13 14 14 12 10 7 4 3 4 4 4 3 4 4 3 2 1 0 0 0
0 0 0 0 0 0 0 0 0 0 0 0 0 0 0 0 0 2 4 5 6 6 7 8 10 11 10 10 8 5 4 3 3 4 3 3 3 3 3 2 1 0 0 0
0 0 0 0 0 0 0 0 0 0 0 0 0 0 0 0 0 1 3 3 4 6 6 7 7 7 8 7 6 6 5 4 3 3 3 4 3 3 3 3 1 0 0 0
0 0 0 0 0 0 0 0 0 0 0 0 0 0 0 0 0 1 1 3 4 6 6 6 6 6 6 6 5 6 6 5 3 3 4 4 4 3 3 3 2 1 0 0
0 0 0 0 0 0 0 0 0 0 0 0 0 0 0 0 0 0 1 3 4 5 6 6 6 6 6 6 5 5 6 5 4 4 4 4 3 3 3 3 2 1 0 0
0 0 0 0 0 0 0 0 0 0 0 0 0 0 0 0 0 0 2 3 3 4 6 6 6 6 6 5 4 3 4 4 3 3 4 3 3 3 3 3 1 0 0 0
0 0 0 0 0 0 0 0 0 0 0 0 0 0 0 0 0 0 1 3 3 4 5 6 6 6 5 4 3 3 3 3 2 2 3 4 3 3 3 2 1 0 0 0
0 0 0 0 0 0 0 0 0 0 0 0 0 0 0 0 0 0 1 2 3 3 4 5 5 5 4 3 3 3 3 3 1 1 2 3 3 3 1 1 0 0 0 0
0 0 0 0 0 0 0 0 0 0 0 0 0 0 0 0 0 0 1 2 3 3 3 3 3 3 4 4 3 3 3 3 2 1 1 2 2 2 1 0 0 0 0 0
0 0 0 0 0 0 0 0 0 0 0 0 0 0 0 0 0 0 1 2 3 3 2 1 1 2 3 4 4 3 3 2 2 1 0 0 1 1 1 0 0 0 0 0
0 0 0 0 0 0 0 0 0 0 0 0 0 0 0 0 0 0 1 2 3 3 1 0 0 1 1 2 3 2 1 1 1 0 0 0 0 0 0 0 0 0 0 0
0 0 0 0 0 0 0 1 1 1 0 0 0 0 0 0 0 0 0 1 3 2 1 0 0 0 0 1 1 1 0 0 0 0 0 0 0 0 0 0 0 0 0 0
0 0 0 0 0 0 0 1 1 1 1 0 0 0 0 0 0 0 0 1 2 2 1 0 1 1 0 0 0 0 1 1 0 0 0 0 0 0 0 0 0 0 0 0
0 0 0 0 0 0 0 0 0 0 0 0 0 0 0 0 0 0 0 0 1 2 1 1 2 2 1 0 0 1 2 2 1 0 0 0 0 0 0 0 0 0 0 0
0 0 0 0 0 0 0 0 0 0 0 0 0 0 0 0 0 0 0 0 0 1 1 1 2 2 1 0 1 2 3 2 1 0 0 0 0 0 0 0 0 0 0 0
0 0 0 0 0 0 0 0 0 0 0 0 0 0 0 0 0 0 0 0 0 0 0 0 1 1 1 0 1 3 3 2 1 0 0 0 0 0 0 0 0 0 0 0
0 0 0 0 0 0 0 0 0 0 0 0 0 0 0 0 0 0 0 0 0 0 0 0 0 0 0 0 2 3 3 3 2 1 0 0 0 0 0 0 0 0 0 0
0 0 0 0 0 0 0 0 0 0 0 0 0 0 0 0 1 1 1 0 0 0 0 0 0 0 0 0 1 2 3 3 3 2 1 1 1 1 0 0 0 0 0 0
0 0 0 0 0 0 0 0 0 0 0 0 0 0 0 0 1 2 2 1 0 0 0 0 0 0 0 0 0 1 2 2 3 2 2 2 2 2 1 1 0 0 0 0
0 0 0 0 0 0 0 0 0 0 0 0 0 0 0 0 0 1 2 1 0 0 0 0 0 0 0 0 0 0 1 1 1 3 4 4 3 2 2 1 0 0 0 0
0 0 0 0 0 0 0 0 0 0 0 0 0 0 0 0 0 0 1 1 0 0 0 0 0 0 0 0 0 0 0 0 1 3 5 4 3 2 1 1 0 0 0 0
0 0 0 0 0 0 0 0 0 0 0 0 0 0 0 0 0 0 0 0 0 0 0 0 0 0 0 0 0 0 0 0 0 1 3 3 2 1 0 0 0 0 0 0
Wind_Speed
4 4 4 7 7 5 3 3 6 8 4 3 4 5 5 6 8 9 8 9 9 8 6 6 7 8 9 9 9 9 9 8 7 6 5 4 4 3 3 3 4 5 5 5
3 4 8 6 5 4 4 4 6 7 2 2 2 3 3 6 9 10 11 10 10 7 6 8 8 8 9 9 9 9 9 9 8 6 5 4 4 3 2 2 3 4 5 5
7 6 4 5 4 3 5 5 6 5 2 3 2 4 2 3 3 5 7 8 9 11 10 9 10 9 9 10 10 10 9 9 8 7 5 5 4 3 2 2 2 2 4 5
6 6 3 4 5 5 6 6 6 3 1 2 1 3 6 3 3 6 8 9 10 9 9 9 10 10 11 10 9 10 9 8 8 8 8 9 6 4 4 3 3 3 4 5
7 5 5 6 7 7 6 1 1 1 3 1 1 2 7 1 5 9 10 11 12 11 11 11 10 10 10 9 9 9 9 8 8 8 9 8 6 4 3 4 5 4 3 4
6 3 5 7 5 5 4 5 6 5 5 1 3 3 7 6 8 7 10 11 12 12 11 10 9 8 7 8 8 9 9 8 8 8 8 9 9 7 7 6 5 4 2 2
4 4 4 3 1 1 4 5 4 4 3 5 2 3 10 8 7 8 11 12 11 11 11 11 11 10 10 10 10 10 10 8 8 9 9 9 9 9 9 8 7 6 3 3
3 6 4 4 6 6 5 8 8 5 5 5 2 6 9 5 4 5 7 9 10 11 11 12 12 12 12 12 11 11 11 9 9 9 9 8 8 7 6 7 6 6 5 4
6 6 3 2 3 8 6 4 6 7 2 1 5 7 10 2 2 3 5 8 11 12 13 12 12 12 12 12 11 12 11 9 9 9 8 8 8 7 7 7 6 5 4 5
8 3 3 2 4 4 4 8 6 6 5 3 5 5 6 5 3 4 5 8 10 11 12 11 11 12 11 11 10 10 10 10 9 9 8 8 8 8 8 7 7 7 6 6
5 4 3 3 2 4 4 4 5 5 5 6 3 8 7 6 6 7 8 8 10 12 13 12 11 10 10 9 10 10 9 8 8 9 8 8 8 7 8 7 8 7 6 7
3 5 1 2 2 1 3 5 7 6 4 4 4 10 5 4 4 6 6 6 8 10 10 11 11 10 10 10 10 10 10 9 9 9 8 9 8 8 8 7 7 7 7 7
5 6 4 3 4 3 2 2 4 5 5 5 5 9 3 1 1 3 5 6 7 9 9 10 10 11 11 11 11 11 11 10 9 9 9 9 9 9 9 8 8 8 8 7
6 5 6 8 7 4 2 3 4 6 5 5 8 9 7 4 4 3 4 6 7 9 11 11 11 11 11 11 11 11 11 10 10 10 10 10 10 10 9 8 8 8 8 8
4 3 2 3 3 3 3 5 6 6 8 8 8 8 9 5 6 5 5 6 7 9 10 13 13 12 11 11 11 11 11 11 11 11 11 10 9 8 8 8 8 8 8 8
3 3 1 1 2 2 3 6 7 7 5 6 5 8 6 4 3 3 4 7 8 10 12 13 13 13 14 14 13 12 12 12 12 12 11 10 9 9 9 9 8 8 7 7
2 5 3 2 2 1 5 6 6 4 4 5 7 7 4 4 4 4 5 7 9 10 11 12 14 14 14 14 14 14 13 12 12 12 11 11 11 11 10 10 9 9 8 7
6 5 3 1 1 5 6 1 1 3 3 3 4 5 5 6 7 5 4 6 7 8 9 11 11 12 12 11 12 12 11 12 13 12 12 11 11 11 10 9 10 9 7 7
4 7 4 3 2 5 4 1 0 2 4 2 3 6 7 6 3 2 1 2 5 7 8 10 11 11 11 12 12 12 12 12 13 13 13 13 13 12 11 11 11 8 7 7
4 4 5 3 3 5 4 2 1 1 4 2 3 5 5 3 2 4 4 3 3 4 5 6 7 7 9 11 12 13 13 13 15 15 14 13 12 13 13 12 10 7 7 8
2 3 3 3 3 6 4 3 1 3 5 3 2 3 2 1 4 5 7 5 3 3 3 5 7 8 9 10 12 13 13 15 15 13 11 11 12 12 11 10 8 7 7 7
4 3 3 3 3 6 2 1 1 4 3 3 3 3 3 3 4 4 4 4 3 2 1 4 6 7 6 9 11 12 13 13 10 10 11 11 12 11 10 10 9 8 9 8
3 5 5 6 6 4 2 3 3 2 3 3 3 4 3 4 4 5 4 3 3 2 0 2 5 6 6 7 10 12 11 9 10 11 11 10 10 9 9 10 10 8 8 7
1 1 1 3 5 4 4 3 3 2 3 3 4 4 3 3 4 4 4 4 3 2 1 2 4 5 6 6 7 8 6 8 10 11 10 9 10 9 8 7 8 8 8 8
2 1 1 3 5 4 3 2 2 2 2 2 2 2 1 1 3 3 4 4 3 3 2 3 4 4 4 5 5 5 6 8 9 9 8 8 8 8 8 7 6 7 7 8
2 3 4 4 4 2 3 4 3 2 3 3 1 3 3 3 2 3 3 3 3 4 3 3 4 4 4 4 4 4 5 8 9 7 7 6 6 6 6 6 4 3 4 6
Wind_Direction
140 113 195 208 195 200 217 251 274 273 265 201 230 244 231 190 184 182 176 176 181 188 178 169 170 167 163 163 168 168 161 157 153 147 149 146 146 144 133 138 142 143 140 137
83 235 223 201 195 201 219 260 275 293 330 165 246 268 223 196 196 190 182 182 184 185 177 173 169 160 160 165 167 163 161 161 162 160 151 140 132 127 122 122 126 139 140 139
188 227 198 180 202 215 242 223 242 253 336 36 51 324 262 221 195 192 190 184 186 189 185 174 169 167 161 167 172 169 166 161 157 148 129 117 102 94 104 115 121 136 136 133
221 240 201 205 225 196 256 236 222 227 145 293 77 276 275 231 214 204 197 190 192 192 181 177 173 170 172 174 172 169 164 158 155 150 150 152 151 153 164 154 142 126 125 132
226 206 189 210 222 188 221 223 141 149 143 25 357 205 280 213 232 222 206 199 196 191 182 179 178 176 172 169 168 166 157 159 160 161 159 155 147 141 132 126 129 120 112 124
235 222 200 211 222 193 165 73 56 54 74 297 238 191 271 224 219 216 205 200 196 191 183 178 174 167 164 162 163 161 159 163 163 165 163 160 154 148 142 142 144 137 121 113
279 269 238 191 186 82 124 97 35 2 9 251 237 213 251 242 220 205 198 197 193 188 182 177 174 172 171 168 168 166 165 168 167 166 166 166 162 160 161 159 158 153 145 144
198 275 245 193 186 184 172 145 159 193 222 270 284 239 255 255 232 211 193 186 184 184 185 183 183 177 175 174 171 169 171 171 170 171 170 167 164 163 164 163 161 165 163 160
178 245 286 232 178 146 142 164 160 133 149 266 276 279 296 275 257 217 188 181 187 187 187 185 181 176 175 176 176 175 172 170 173 172 166 165 165 164 164 161 158 158 154 152
157 214 292 303 76 42 135 141 107 123 149 241 284 275 260 270 243 221 198 196 194 187 184 180 179 179 178 177 175 173 174 174 170 169 171 171 169 168 162 157 160 160 158 150
139 159 313 26 120 173 117 101 108 114 150 161 250 271 232 233 222 212 211 201 189 183 182 182 182 178 173 170 170 173 174 169 168 170 168 162 164 161 157 161 164 162 160 157
130 123 177 285 294 281 146 154 145 149 195 172 181 265 271 235 222 208 210 199 186 181 179 178 176 171 171 174 175 176 177 175 173 167 163 163 159 156 160 164 165 162 163 164
128 112 90 1 342 2 86 139 141 127 123 157 178 260 291 351 242 212 201 191 180 172 171 172 171 174 179 180 180 179 179 177 169 163 162 160 160 163 169 169 165 163 162 162
114 113 157 187 211 201 201 185 158 132 152 196 220 249 284 287 272 251 209 192 184 180 177 177 178 180 182 181 181 179 180 173 166 164 165 169 173 174 173 168 165 166 164 164
97 127 180 216 227 193 216 213 188 188 190 194 229 237 260 262 246 237 206 185 183 185 186 185 185 184 181 179 179 179 178 172 169 168 173 180 178 171 166 167 168 165 167 174
75 124 118 303 264 230 249 245 223 220 211 223 251 266 264 275 254 241 206 188 190 192 195 192 188 185 185 184 182 178 178 176 172 176 182 177 170 170 172 173 169 167 172 172
106 123 123 245 303 360 255 238 220 220 211 196 227 251 309 311 293 256 224 204 202 198 194 192 191 190 190 189 184 182 181 174 175 181 180 176 174 177 179 177 172 178 181 177
134 123 134 163 91 228 245 289 230 222 241 227 256 282 290 278 278 258 224 205 209 203 198 196 193 192 189 185 181 178 172 174 179 182 182 179 179 182 178 176 182 187 181 183
134 134 127 135 195 273 291 326 116 219 268 245 265 291 300 305 322 315 247 208 219 213 208 202 195 188 181 180 177 170 173 177 181 186 187 185 183 182 180 186 189 186 182 189
68 97 119 139 178 235 253 278 279 154 273 262 266 292 313 358 360 293 319 320 277 239 217 205 186 170 173 179 169 171 179 181 189 192 191 186 184 184 187 191 188 181 184 194
76 74 126 165 218 261 276 305 18 173 257 308 295 296 318 271 244 285 313 318 307 273 224 184 170 171 181 175 168 177 183 194 197 189 182 180 184 188 188 185 179 178 185 188
163 151 170 153 198 255 291 28 184 233 282 300 295 286 280 277 292 306 318 318 325 326 214 171 167 174 172 168 173 182 194 196 183 174 176 182 185 187 187 180 181 181 183 190
186 186 184 188 215 244 241 230 262 246 270 285 287 287 283 300 313 315 322 327 325 324 173 174 172 165 161 170 177 189 196 179 169 171 179 181 181 184 180 182 184 181 185 195
278 142 156 262 267 270 279 274 278 247 246 273 278 280 282 298 314 327 339 347 345 351 79 117 140 149 160 174 184 191 179 166 166 174 179 176 178 181 180 181 183 185 189 197
249 160 184 270 283 310 321 305 288 296 295 294 298 303 314 345 353 355 359 359 1 15 43 100 129 147 158 162 169 166 156 157 162 168 171 172 176 174 176 179 184 190 198 196
218 190 187 233 251 232 279 304 319 345 329 322 358 28 16 26 17 22 27 18 24 35 48 82 101 120 134 144 148 140 147 153 153 156 161 163 164 164 167 168 164 171 181 186